Tracking 22882 objects as of 19-Apr-2021
HD Live streaming from Space Station
objects crossing your sky now

STARLINK-1672

Track STARLINK-1672 now!
10-day predictions
STARLINK-1672 is classified as:


NORAD ID: 46537
Int'l Code: 2020-070F
Perigee: 552.8 km
Apogee: 555.9 km
Inclination: 53.1 °
Period: 95.6 minutes
Semi major axis: 6925 km
RCS: Unknown
Launch date: October 6, 2020
Source: United States (US)
Launch site: AIR FORCE EASTERN TEST RANGE (AFETR)
aabbcc
Your satellite tracking list
Your tracking list is empty




NASA's NSSDC Master Catalog

Two Line Element Set (TLE):
1 46537U 20070F   21107.96891387  .00001439  00000-0  11552-3 0  9990
2 46537  53.0569 277.5005 0002237 109.7041 250.4189 15.06398388 30202
Source of the keplerian elements: AFSPC